Rugby, ND

1:46 PM CST on December 17, 2017 (GMT -0600)
Rugby Municipal

Weather History for KRUG - November, 2013

Change the Weather History Date:

Sunday, November 10, 2013

  Actual Average Record
Temperature  
Mean Temperature 19 °F -  
Max Temperature 32 °F 35 °F 67 °F (1961)
Min Temperature 6 °F 17 °F -10 °F (1986)
Degree Days  
Heating Degree Days 46    
Moisture  
Dew Point 13 °F    
Average Humidity 71    
Maximum Humidity 100    
Minimum Humidity 34    
Precipitation  
Precipitation 0.00 in - - ()
Sea Level Pressure  
Sea Level Pressure 30.22 in    
Wind  
Wind Speed 10 mph (NW)    
Max Wind Speed 20 mph    
Max Gust Speed 25 mph    
Visibility 10 miles    
Events      
Averages and records for this station are not official NWS values.
T = Trace of Precipitation, MM = Missing Value Source: NWS Daily Summary

Daily Weather History Graph

Daily Weather History Graph

Search for Another Location

Airport or City:

Trip Planner

Search our weather history database for the weather conditions in past years. The results will help you decide how hot, cold, wet, or windy it might be!

Date:

Astronomy

Nov. 10, 2013 Rise Set
Actual Time 7:40 AM CST 5:07 PM CST
Civil Twilight 7:06 AM CST 5:40 PM CST
Nautical Twilight 6:29 AM CST 6:18 PM CST
Astronomical Twilight 5:52 AM CST 6:54 PM CST
Moon 1:44 PM CST (11/10) No Moon Set
Length of Visible Light 10h 34m
Length of Day
9h 26m
First Quarter, 56% of the Moon is Illuminated
Nov 10
First Quarter
Nov 17
Full
Nov 25
Last Quarter
Dec 2
New
Dec 9
First Quarter

Hourly Weather History & Observations

Time (CST) Temp. Windchill Dew Point Humidity Pressure Visibility Wind Dir Wind Speed Gust Speed Precip Events Conditions
12:15 AM 21.2 °F 11.7 °F 19.4 °F 93% 30.22 in 10.0 mi SW 8.1 mph - N/A   Clear
12:35 AM 23.0 °F 13.9 °F 19.4 °F 86% 30.23 in 10.0 mi SW 8.1 mph - N/A   Clear
12:55 AM 23.0 °F 13.9 °F 19.4 °F 86% 30.23 in 10.0 mi SW 8.1 mph - N/A   Clear
1:15 AM 19.4 °F 11.5 °F 19.4 °F 100% 30.21 in 10.0 mi SSW 5.8 mph - N/A   Clear
1:35 AM 19.4 °F 11.5 °F 19.4 °F 100% 30.20 in 10.0 mi SSW 5.8 mph - N/A   Clear
1:55 AM 19.4 °F 12.8 °F 19.4 °F 100% 30.19 in 10.0 mi SSW 4.6 mph - N/A   Clear
2:15 AM 19.4 °F 11.5 °F 17.6 °F 93% 30.18 in 10.0 mi SSW 5.8 mph - N/A   Clear
2:35 AM 21.2 °F 13.6 °F 19.4 °F 93% 30.18 in 10.0 mi South 5.8 mph - N/A   Clear
2:55 AM 21.2 °F 11.7 °F 19.4 °F 93% 30.18 in 10.0 mi SSW 8.1 mph - N/A   Clear
3:15 AM 21.2 °F 12.6 °F 19.4 °F 93% 30.17 in 10.0 mi South 6.9 mph - N/A   Clear
3:35 AM 21.2 °F 12.6 °F 19.4 °F 93% 30.17 in 10.0 mi South 6.9 mph - N/A   Clear
3:55 AM 21.2 °F 12.6 °F 19.4 °F 93% 30.17 in 10.0 mi SSW 6.9 mph - N/A   Clear
4:15 AM 23.0 °F 15.8 °F 19.4 °F 86% 30.16 in 10.0 mi South 5.8 mph - N/A   Clear
4:35 AM 23.0 °F 13.1 °F 19.4 °F 86% 30.15 in 10.0 mi SSW 9.2 mph - N/A   Clear
4:55 AM 24.8 °F 14.6 °F 21.2 °F 86% 30.14 in 10.0 mi SSW 10.4 mph 16.1 mph N/A   Clear
5:15 AM 24.8 °F 16.1 °F 21.2 °F 86% 30.14 in 10.0 mi SSW 8.1 mph - N/A   Clear
5:35 AM 24.8 °F 14.0 °F 23.0 °F 93% 30.13 in 10.0 mi SSW 11.5 mph - N/A   Clear
5:55 AM 24.8 °F 14.0 °F 23.0 °F 93% 30.13 in 10.0 mi SSW 11.5 mph - N/A   Partly Cloudy
6:15 AM 24.8 °F 16.9 °F 23.0 °F 93% 30.12 in 10.0 mi South 6.9 mph - N/A   Mostly Cloudy
6:35 AM 24.8 °F 15.3 °F 23.0 °F 93% 30.11 in 10.0 mi SSW 9.2 mph - N/A   Mostly Cloudy
6:55 AM 24.8 °F 15.3 °F 23.0 °F 93% 30.10 in 10.0 mi SSW 9.2 mph - N/A   Scattered Clouds
7:15 AM 24.8 °F 14.6 °F 23.0 °F 93% 30.09 in 10.0 mi SSW 10.4 mph - N/A   Clear
7:35 AM 26.6 °F 17.5 °F 23.0 °F 86% 30.10 in 10.0 mi SSW 9.2 mph - N/A   Clear
7:55 AM 24.8 °F 13.4 °F 23.0 °F 93% 30.13 in 10.0 mi NNW 12.7 mph - N/A   Clear
8:15 AM 24.8 °F 19.1 °F 23.0 °F 93% 30.12 in 10.0 mi WSW 4.6 mph - N/A   Clear
8:35 AM 24.8 °F 17.9 °F 24.8 °F 100% 30.13 in 10.0 mi WSW 5.8 mph - N/A   Clear
8:55 AM 26.6 °F 20.0 °F 26.6 °F 100% 30.12 in 10.0 mi West 5.8 mph - N/A   Clear
9:15 AM 30.2 °F 21.9 °F 26.6 °F 86% 30.13 in 10.0 mi West 9.2 mph - N/A   Clear
9:35 AM 32.0 °F 22.5 °F 28.4 °F 87% 30.12 in 10.0 mi WNW 12.7 mph - N/A   Clear
9:55 AM 32.0 °F 21.2 °F 28.4 °F 87% 30.13 in 10.0 mi NW 16.1 mph - N/A   Clear
10:15 AM 32.0 °F 21.6 °F 28.4 °F 87% 30.14 in 10.0 mi NW 15.0 mph 20.7 mph N/A   Clear
10:35 AM 32.0 °F 21.6 °F 26.6 °F 80% 30.14 in 10.0 mi NNW 15.0 mph - N/A   Partly Cloudy
10:55 AM 32.0 °F 21.6 °F 26.6 °F 80% 30.14 in 10.0 mi NNW 15.0 mph 18.4 mph N/A   Partly Cloudy
11:15 AM 32.0 °F 22.1 °F 26.6 °F 80% 30.15 in 10.0 mi North 13.8 mph - N/A   Mostly Cloudy
11:35 AM 32.0 °F 23.0 °F 26.6 °F 80% 30.15 in 10.0 mi North 11.5 mph - N/A   Overcast
11:55 AM 32.0 °F 20.8 °F 26.6 °F 80% 30.16 in 10.0 mi North 17.3 mph - N/A   Overcast
12:15 PM 30.2 °F 18.9 °F 23.0 °F 75% 30.17 in 10.0 mi North 16.1 mph - N/A   Overcast
12:35 PM 30.2 °F 18.9 °F 19.4 °F 64% 30.17 in 10.0 mi North 16.1 mph - N/A   Mostly Cloudy
12:55 PM 30.2 °F 18.5 °F 19.4 °F 64% 30.17 in 10.0 mi NNW 17.3 mph 20.7 mph N/A   Partly Cloudy
1:15 PM 28.4 °F 16.2 °F 17.6 °F 64% 30.17 in 10.0 mi North 17.3 mph 25.3 mph N/A   Scattered Clouds
1:35 PM 26.6 °F 13.1 °F 8.6 °F 47% 30.18 in 10.0 mi North 19.6 mph 23.0 mph N/A   Partly Cloudy
1:55 PM 26.6 °F 14.3 °F 5.0 °F 40% 30.18 in 10.0 mi North 16.1 mph - N/A   Partly Cloudy
2:15 PM 26.6 °F 13.4 °F 1.4 °F 34% 30.18 in 10.0 mi North 18.4 mph - N/A   Clear
2:35 PM 26.6 °F 13.1 °F 3.2 °F 37% 30.19 in 10.0 mi North 19.6 mph - N/A   Clear
2:55 PM 26.6 °F 13.8 °F 3.2 °F 37% 30.20 in 10.0 mi North 17.3 mph - N/A   Scattered Clouds
3:15 PM 24.8 °F 11.5 °F 1.4 °F 36% 30.21 in 10.0 mi North 17.3 mph - N/A   Partly Cloudy
3:35 PM 24.8 °F 11.5 °F 1.4 °F 36% 30.22 in 10.0 mi North 17.3 mph - N/A   Scattered Clouds
3:55 PM 23.0 °F 10.1 °F -0.4 °F 36% 30.23 in 10.0 mi North 15.0 mph 21.9 mph N/A   Mostly Cloudy
4:15 PM 23.0 °F 9.6 °F -0.4 °F 36% 30.24 in 10.0 mi North 16.1 mph - N/A   Partly Cloudy
4:35 PM 21.2 °F 7.3 °F -0.4 °F 39% 30.26 in 10.0 mi North 16.1 mph 19.6 mph N/A   Clear
4:55 PM 19.4 °F 4.5 °F -0.4 °F 42% 30.27 in 10.0 mi North 17.3 mph - N/A   Clear
5:15 PM 19.4 °F 6.6 °F -0.4 °F 42% 30.28 in 10.0 mi North 12.7 mph - N/A   Clear
5:35 PM 19.4 °F 7.2 °F -0.4 °F 42% 30.29 in 10.0 mi North 11.5 mph - N/A   Clear
5:55 PM 17.6 °F 5.0 °F -0.4 °F 45% 30.29 in 10.0 mi North 11.5 mph - N/A   Clear
6:15 PM 17.6 °F 5.7 °F 1.4 °F 49% 30.30 in 10.0 mi NNW 10.4 mph - N/A   Clear
6:35 PM 17.6 °F 4.3 °F -0.4 °F 45% 30.31 in 10.0 mi NNW 12.7 mph - N/A   Clear
6:55 PM 17.6 °F 3.7 °F -0.4 °F 45% 30.32 in 10.0 mi NNW 13.8 mph - N/A   Clear
7:15 PM 17.6 °F 2.2 °F -0.4 °F 45% 30.32 in 10.0 mi NNW 17.3 mph - N/A   Clear
7:35 PM 17.6 °F 2.7 °F -4.0 °F 38% 30.33 in 10.0 mi NNW 16.1 mph 19.6 mph N/A   Clear
7:55 PM 15.8 °F 1.4 °F -2.2 °F 45% 30.33 in 10.0 mi NNW 13.8 mph - N/A   Clear
8:15 PM 15.8 °F 2.1 °F 3.2 °F 58% 30.34 in 10.0 mi NNW 12.7 mph - N/A   Clear
8:35 PM 15.8 °F -0.2 °F -0.4 °F 49% 30.35 in 10.0 mi NNW 17.3 mph - N/A   Clear
8:55 PM 15.8 °F 2.1 °F -0.4 °F 49% 30.36 in 10.0 mi NNW 12.7 mph - N/A   Clear
9:15 PM 14.0 °F -2.0 °F 3.2 °F 62% 30.37 in 10.0 mi NNW 16.1 mph - N/A   Clear
9:35 PM 14.0 °F -1.4 °F 5.0 °F 67% 30.37 in 10.0 mi NW 15.0 mph - N/A   Clear
9:55 PM 14.0 °F -0.2 °F 3.2 °F 62% 30.38 in 10.0 mi North 12.7 mph - N/A   Clear
10:15 PM 12.2 °F -4.3 °F 3.2 °F 67% 30.39 in 10.0 mi NNW 16.1 mph 20.7 mph N/A   Clear
10:35 PM 10.4 °F -5.4 °F 1.4 °F 67% 30.40 in 10.0 mi NNW 13.8 mph - N/A   Clear
10:55 PM 8.6 °F -7.7 °F 1.4 °F 73% 30.41 in 10.0 mi NNW 13.8 mph - N/A   Clear
11:15 PM 8.6 °F -6.3 °F 1.4 °F 73% 30.42 in 10.0 mi NNW 11.5 mph - N/A   Clear
11:35 PM 6.8 °F -8.6 °F 1.4 °F 79% 30.42 in 10.0 mi NNW 11.5 mph - N/A   Clear
11:55 PM 6.8 °F -8.6 °F 1.4 °F 79% 30.43 in 10.0 mi NNW 11.5 mph - N/A   Clear